Weather in Nové Město pod Smrkem

Czech Republic     50°55′22″N   15°13′53″E
temp.,
°C
wind,
m/s
gust,
m/s
humid.,
%
clouds,
%
prec.,
mm/h
press.,
hPa
HPBL,
m
28 november, sun
sun2801:000ssw3588100 0.0 997200
04:00+1sw2485100 0.0 997145
07:00+1wsw1280100 0.0 99856
10:00+1nnw1279100 0.0 998265
13:00+1ne2287100 0.1 997308
16:000nw1298100 1.0 997121
19:00−1wnw2499100 3.2 997286
22:00−1wnw2699100 2.6 998343
29 november, mon
mon2901:00−1wnw3799100 4.1 998380
04:00−2wnw3698100 0.5 999399
07:00−2w3798100 1.1 1000409
10:00−1w4896100 0.5 1002579
13:00−1w51098100 1.4 1002761
16:00−1w51197100 1.1 1004800
19:00−1wnw61195100 1.8 1005831
22:00−2w51198100 2.0 1007689
30 november, tue
tue3001:00−1wnw51095100 3.5 1009893
04:00−3w4119187 0.5 1011487
07:00−2wsw41195100 0.9 1011657
10:00−1sw51191100 0.2 1010739
13:000sw61492100 0.8 10051053
16:000sw61797100 3.8 10021120
19:00+1wsw81799100 6.1 1002892
22:00+2w815100100 1.4 1003916
1 december, wed
wed101:00+2wsw715100100 2.1 1004834
04:00+2wsw61499100 0.4 1004743
07:00+2ssw41198100 1.5 1004413
10:00+3ssw51295100 0.9 1003433
13:00+4sw6169599 1.4 1000862
16:00+4sw71692100 0.1 9981077
19:00+4sw71593100 0.1 997927
22:00+4sw6149399 0.0 997861
2 december, thu
thu201:00+3sw41096100 0.0 997525
04:00+2sw41198100 0.2 996648
07:00+3ssw51295100 0.3 996815
10:00+4sw61294100 0.2 996967
13:00+4sw51091100 0.3 996870
16:00+2ssw3687100 0.1 997187
19:00+2sw3786100 0.1 997371
22:00+1ssw348894 0.0 998155